[Iaude] MPEC B172: 2024 BY3 [a=2.27,e=0.45,i=5.6,H=24.0]

mpec at marsden.cfa.harvard.edu mpec at marsden.cfa.harvard.edu
Wed Jan 31 05:58:20 EST 2024


M.P.E.C. 2024-B172                             Issued 2024 January 31, 10:56 UT

     The Minor Planet Electronic Circulars contain information on unusual
         minor planets, routine data on comets and natural satellites,
         and occasional editorial announcements.  They are published
    on behalf of Division F of the International Astronomical Union by the
          Minor Planet Center, Smithsonian Astrophysical Observatory,
                          Cambridge, MA 02138, U.S.A.
			  
             Prepared using the Tamkin Foundation Computer Network

                              MPC at CFA.HARVARD.EDU
            URL https://www.minorplanetcenter.net/    ISSN 1523-6714

                                    2024 BY3                                    


Observations:
     K24B03Y* C2024 01 19.35114708 13 01.160+44 47 31.20         22.85GVEB172V00
     K24B03Y  C2024 01 19.35939808 13 01.542+44 47 26.20         22.68GVEB172V00
     K24B03Y  C2024 01 19.36489908 13 01.812+44 47 23.14         22.27GVEB172V00
     K24B03Y  C2024 01 19.37040008 13 02.096+44 47 19.86         22.09GVEB172V00
     K24B03Y mC2024 01 19.40312808 13 03.680+44 47 00.24         22.51GVEB172V00
     K24B03Y  C2024 01 19.40515208 13 03.803+44 46 58.30         22.00GVEB172V00
     K24B03Y mC2024 01 19.40716608 13 03.889+44 46 57.86         22.33GVEB172V00
     K24B03Y mC2024 01 19.41120608 13 04.098+44 46 55.20         22.39GVEB172V00
     K24B03Y  C2024 01 19.41260408 13 04.184+44 46 54.37         22.10GVEB172V00
     K24B03Y mC2024 01 19.41523308 13 04.282+44 46 52.61         22.26GVEB172V00
     K24B03Y  C2024 01 19.41907908 13 04.523+44 46 49.98         22.62GVEB172V00
     K24B03Y  C2024 01 19.42458308 13 04.775+44 46 46.85         22.02GVEB172V00
     K24B03Y KC2024 01 20.50579 08 14 12.79 +44 36 05.1                VEB172291
     K24B03Y KC2024 01 20.51329 08 14 13.22 +44 35 59.7                VEB172291
     K24B03Y KC2024 01 20.52076 08 14 13.56 +44 35 54.4                VEB172291
     K24B03Y KC2024 01 31.39369 08 25 29.06 +41 56 46.1                VEB172291
     K24B03Y KC2024 01 31.40958 08 25 29.93 +41 56 27.3          22.6 RVEB172291
     K24B03Y KC2024 01 31.42565 08 25 30.65 +41 56 08.2          22.9 RVEB172291

Observer details:
291 LPL/Spacewatch II.  Observers R. A. Mastaler, T. H. Bressi.  1.8-m f/2.7
    reflector + CCD.
V00 Kitt Peak-Bok.  Observer R. A. Mastaler.  Measurers M. J. Brucker, C. E.
    Woodward, D. Fay, J. B. Fazekas, D. C. Fuls, A. R. Gibbs, H. Groeller, J.
    K. Hogan, R. A. Kowalski, S. M. Larson, C. Lejoly, G. J. Leonard, R. A.
    Mastaler, R. S. McMillan, D. Rankin, R. L. Seaman, A. Serrano, F. C.
    Shelly, K. W. Wierzchos.  2.25-m reflector + 4x4K mosaic CCD.

Orbital elements:
2024 BY3                                                 Earth MOID = 0.2759 AU
Epoch 2023 Sept. 13.0 TT = JDT 2460200.5                MPC                     
M 321.76324              (2000.0)            P               Q                  
n   0.28828914     Peri.  113.82103     -0.51957798     -0.85432606             
a   2.2694321      Node     7.52185     +0.74377690     -0.45965723             
e   0.4520716      Incl.    5.64339     +0.42051712     -0.24257415             
P   3.42           H   24.00          G   0.15           U   9                  
Residuals in seconds of arc
240119 V00  0.1+  0.2+    240119 V00  0.1-  0.2+    240120 291  0.2+  0.1-
240119 V00  0.0   0.1-    240119 V00  0.0   0.1+    240120 291  0.2+  0.1-
240119 V00  0.0   0.1+    240119 V00  0.1+  0.1+    240120 291  0.8-  0.0
240119 V00  0.2+  0.0     240119 V00  0.3-  0.0     240131 291  0.3-  0.2-
240119 V00  0.2-  0.1+    240119 V00  0.2+  0.3-    240131 291  0.7+  0.0
240119 V00  0.1+  0.6-    240119 V00  0.1-  0.1+    240131 291  0.4-  0.2+

Ephemeris:
2024 BY3                 a,e,i = 2.27, 0.45, 6                   q = 1.2435
Date    TT    R. A. (2000) Decl.     Delta      r    Elong.  Phase     V
2024 01 01    07 50 58.1 +45 19 42   0.3064  1.2653   153.7    20.1    22.9
...
2024 01 16    08 09 24.2 +45 13 37   0.2822  1.2460   155.5    19.1    22.7
...
2024 01 24    08 17 54.3 +43 55 18   0.2789  1.2435   155.5    19.1    22.7
...
2024 01 30    08 24 04.6 +42 22 14   0.2807  1.2452   155.1    19.5    22.7
2024 01 31    08 25 06.1 +42 04 05   0.2814  1.2458   155.0    19.5    22.7
2024 02 01    08 26 07.7 +41 45 14   0.2822  1.2465   154.9    19.6    22.7
...
2024 02 07    08 32 22.0 +39 38 40   0.2892  1.2523   153.9    20.3    22.8
...
2024 02 15    08 41 09.6 +36 21 23   0.3049  1.2647   151.9    21.6    23.0
...
2024 03 01    08 59 52.1 +29 32 35   0.3549  1.3014   146.4    24.9    23.5

A. U. Tomatic                (C) Copyright 2024 MPC           M.P.E.C. 2024-B172





More information about the Iaude mailing list